Time,TemperatureF,DewpointF,PressureIn,WindDirection,WindDirectionDegrees,WindSpeedMPH,WindSpeedGustMPH,Humidity,HourlyPrecipIn,Conditions,Clouds,dailyrainin,SoftwareType,DateUTC
2013-03-30 00:00:00,36.9,32.2,30.11,NNE,26,0.0,0.0,83,0.00,,,0.00,meteohub,2013-03-30 07:00:00,
2013-03-30 00:05:00,36.9,31.8,30.12,NNE,26,0.0,0.0,82,0.00,,,0.00,meteohub,2013-03-30 07:05:00,
2013-03-30 00:11:00,36.5,31.5,30.12,NNE,26,0.0,0.0,82,0.00,,,0.00,meteohub,2013-03-30 07:11:00,
2013-03-30 00:16:00,36.1,31.5,30.12,NNE,26,0.0,0.0,83,0.00,,,0.00,meteohub,2013-03-30 07:16:00,
2013-03-30 00:21:00,36.0,31.3,30.12,NNE,26,0.0,0.0,83,0.00,,,0.00,meteohub,2013-03-30 07:21:00,
2013-03-30 00:26:00,35.8,31.1,30.12,NNE,26,0.0,0.0,83,0.00,,,0.00,meteohub,2013-03-30 07:26:00,
2013-03-30 00:32:00,35.4,30.7,30.12,NNE,26,0.0,0.0,83,0.00,,,0.00,meteohub,2013-03-30 07:32:00,
2013-03-30 00:37:00,35.4,30.7,30.13,NNE,26,0.0,0.0,83,0.00,,,0.00,meteohub,2013-03-30 07:37:00,
2013-03-30 00:42:00,35.4,30.7,30.13,NNE,26,0.0,0.0,83,0.00,,,0.00,meteohub,2013-03-30 07:42:00,
2013-03-30 00:47:00,35.1,30.7,30.13,NNE,26,0.0,0.0,84,0.00,,,0.00,meteohub,2013-03-30 07:47:00,
2013-03-30 00:52:00,34.7,30.4,30.13,NNE,26,0.0,0.0,84,0.00,,,0.00,meteohub,2013-03-30 07:52:00,
2013-03-30 00:57:00,34.5,30.2,30.13,NNE,26,0.0,0.0,84,0.00,,,0.00,meteohub,2013-03-30 07:57:00,
2013-03-30 01:02:00,34.5,30.2,30.13,NNE,26,0.0,0.0,84,0.00,,,0.00,meteohub,2013-03-30 08:02:00,
2013-03-30 01:07:00,34.3,29.7,30.13,NNE,26,0.0,0.0,83,0.00,,,0.00,meteohub,2013-03-30 08:07:00,
2013-03-30 01:12:00,34.3,30.0,30.13,NNE,26,0.0,0.0,84,0.00,,,0.00,meteohub,2013-03-30 08:12:00,
2013-03-30 01:17:00,34.3,30.0,30.13,NNE,26,0.0,0.0,84,0.00,,,0.00,meteohub,2013-03-30 08:17:00,
2013-03-30 01:22:00,34.3,29.7,30.13,NNE,26,0.0,0.0,83,0.00,,,0.00,meteohub,2013-03-30 08:22:00,
2013-03-30 01:27:00,34.0,29.3,30.13,NNE,26,0.0,0.0,83,0.00,,,0.00,meteohub,2013-03-30 08:27:00,
2013-03-30 01:32:00,33.4,29.1,30.13,NNE,26,0.0,0.0,84,0.00,,,0.00,meteohub,2013-03-30 08:32:00,
2013-03-30 01:37:00,33.3,29.3,30.13,NNE,26,0.0,0.0,85,0.00,,,0.00,meteohub,2013-03-30 08:37:00,
2013-03-30 01:42:00,33.1,29.1,30.13,NNE,26,0.0,0.0,85,0.00,,,0.00,meteohub,2013-03-30 08:42:00,
2013-03-30 01:47:00,33.3,29.3,30.13,NNE,26,0.0,0.0,85,0.00,,,0.00,meteohub,2013-03-30 08:47:00,
2013-03-30 01:52:00,33.3,29.3,30.13,NNE,26,0.0,0.0,85,0.00,,,0.00,meteohub,2013-03-30 08:52:00,
2013-03-30 01:57:00,33.4,29.1,30.13,NNE,26,0.0,0.0,84,0.00,,,0.00,meteohub,2013-03-30 08:57:00,
2013-03-30 02:03:00,33.3,28.9,30.13,NNE,26,0.0,0.0,84,0.00,,,0.00,meteohub,2013-03-30 09:03:00,
2013-03-30 02:08:00,33.3,28.9,30.13,NNE,26,0.0,0.0,84,0.00,,,0.00,meteohub,2013-03-30 09:08:00,
2013-03-30 02:13:00,33.3,28.9,30.13,NNE,26,0.0,0.0,84,0.00,,,0.00,meteohub,2013-03-30 09:13:00,
2013-03-30 02:18:00,33.1,28.8,30.13,NNE,26,0.0,0.0,84,0.00,,,0.00,meteohub,2013-03-30 09:18:00,
2013-03-30 02:23:00,32.9,28.6,30.13,NNE,26,0.0,0.0,84,0.00,,,0.00,meteohub,2013-03-30 09:23:00,
2013-03-30 02:29:00,32.7,28.4,30.13,NNE,26,0.0,0.0,84,0.00,,,0.00,meteohub,2013-03-30 09:29:00,
2013-03-30 02:34:00,32.7,28.4,30.12,NNE,26,0.0,0.0,84,0.00,,,0.00,meteohub,2013-03-30 09:34:00,
2013-03-30 02:39:00,32.7,28.4,30.12,NNE,26,0.0,0.0,84,0.00,,,0.00,meteohub,2013-03-30 09:39:00,
2013-03-30 02:45:00,32.7,28.8,30.12,NNE,26,0.0,0.0,85,0.00,,,0.00,meteohub,2013-03-30 09:45:00,
2013-03-30 02:50:00,32.7,28.8,30.13,NNE,26,0.0,0.0,85,0.00,,,0.00,meteohub,2013-03-30 09:50:00,
2013-03-30 02:55:00,32.9,28.6,30.13,NNE,26,0.0,0.0,84,0.00,,,0.00,meteohub,2013-03-30 09:55:00,
2013-03-30 03:00:00,32.7,28.4,30.13,NNE,26,0.0,0.0,84,0.00,,,0.00,meteohub,2013-03-30 10:00:00,
2013-03-30 03:05:00,32.7,28.4,30.13,NNE,26,0.0,0.0,84,0.00,,,0.00,meteohub,2013-03-30 10:05:00,
2013-03-30 03:11:00,32.7,28.4,30.13,NNE,26,0.0,0.0,84,0.00,,,0.00,meteohub,2013-03-30 10:11:00,
2013-03-30 03:17:00,32.5,28.2,30.13,NNE,26,0.0,0.0,84,0.00,,,0.00,meteohub,2013-03-30 10:17:00,
2013-03-30 03:22:00,32.4,28.0,30.14,NNE,26,0.0,0.0,84,0.00,,,0.00,meteohub,2013-03-30 10:22:00,
2013-03-30 03:27:00,31.8,27.5,30.14,NNE,26,0.0,0.0,84,0.00,,,0.00,meteohub,2013-03-30 10:27:00,
2013-03-30 03:32:00,31.6,27.7,30.14,NNE,26,0.0,0.0,85,0.00,,,0.00,meteohub,2013-03-30 10:32:00,
2013-03-30 03:37:00,31.8,27.9,30.13,NNE,26,0.0,0.0,85,0.00,,,0.00,meteohub,2013-03-30 10:37:00,
2013-03-30 03:42:00,31.6,27.3,30.13,NNE,26,0.0,0.0,84,0.00,,,0.00,meteohub,2013-03-30 10:42:00,
2013-03-30 03:47:00,31.5,27.1,30.13,NNE,26,0.0,0.0,84,0.00,,,0.00,meteohub,2013-03-30 10:47:00,
2013-03-30 03:52:00,31.3,27.3,30.13,NNE,26,0.0,0.0,85,0.00,,,0.00,meteohub,2013-03-30 10:52:00,
2013-03-30 03:57:00,31.3,27.5,30.13,NNE,26,0.0,0.0,86,0.00,,,0.00,meteohub,2013-03-30 10:57:00,
2013-03-30 04:02:00,31.3,27.5,30.13,NNE,26,0.0,1.0,86,0.00,,,0.00,meteohub,2013-03-30 11:02:00,
2013-03-30 04:07:00,31.3,27.9,30.14,NNE,26,0.0,1.0,87,0.00,,,0.00,meteohub,2013-03-30 11:07:00,
2013-03-30 04:12:00,31.3,27.9,30.14,NNE,26,0.0,1.0,87,0.00,,,0.00,meteohub,2013-03-30 11:12:00,
2013-03-30 04:17:00,31.3,27.5,30.14,NNE,26,0.0,0.0,86,0.00,,,0.00,meteohub,2013-03-30 11:17:00,
2013-03-30 04:22:00,31.3,27.5,30.14,NNE,26,0.0,0.0,86,0.00,,,0.00,meteohub,2013-03-30 11:22:00,
2013-03-30 04:28:00,31.1,27.1,30.14,NNE,26,0.0,0.0,85,0.00,,,0.00,meteohub,2013-03-30 11:28:00,
2013-03-30 04:33:00,30.9,27.0,30.14,NNE,26,0.0,0.0,85,0.00,,,0.00,meteohub,2013-03-30 11:33:00,
2013-03-30 04:38:00,30.7,26.4,30.13,NNE,26,0.0,0.0,84,0.00,,,0.00,meteohub,2013-03-30 11:38:00,
2013-03-30 04:43:00,30.2,25.9,30.13,NNE,26,0.0,0.0,84,0.00,,,0.00,meteohub,2013-03-30 11:43:00,
2013-03-30 04:48:00,29.8,25.9,30.13,NNE,26,0.0,0.0,85,0.00,,,0.00,meteohub,2013-03-30 11:48:00,
2013-03-30 04:54:00,29.7,25.7,30.13,NNE,26,0.0,0.0,85,0.00,,,0.00,meteohub,2013-03-30 11:54:00,
2013-03-30 04:59:00,29.7,26.1,30.13,NNE,26,0.0,0.0,86,0.00,,,0.00,meteohub,2013-03-30 11:59:00,
2013-03-30 05:04:00,29.3,25.7,30.13,NNE,26,0.0,0.0,86,0.00,,,0.00,meteohub,2013-03-30 12:04:00,
2013-03-30 05:09:00,29.1,25.7,30.13,NNE,26,0.0,0.0,87,0.00,,,0.00,meteohub,2013-03-30 12:09:00,
2013-03-30 05:14:00,29.5,26.1,30.13,NNE,26,0.0,0.0,87,0.00,,,0.00,meteohub,2013-03-30 12:14:00,
2013-03-30 05:20:00,29.5,26.1,30.13,NNE,26,0.0,0.0,87,0.00,,,0.00,meteohub,2013-03-30 12:20:00,
2013-03-30 05:25:00,29.5,26.1,30.13,NNE,26,0.0,0.0,87,0.00,,,0.00,meteohub,2013-03-30 12:25:00,
2013-03-30 05:30:00,29.5,26.1,30.13,NNE,26,0.0,0.0,87,0.00,,,0.00,meteohub,2013-03-30 12:30:00,
2013-03-30 05:35:00,29.5,26.1,30.13,NNE,26,0.0,0.0,87,0.00,,,0.00,meteohub,2013-03-30 12:35:00,
2013-03-30 05:40:00,29.7,26.2,30.13,NNE,26,0.0,0.0,87,0.00,,,0.00,meteohub,2013-03-30 12:40:00,
2013-03-30 05:46:00,29.7,26.2,30.13,NNE,26,0.0,0.0,87,0.00,,,0.00,meteohub,2013-03-30 12:46:00,
2013-03-30 05:51:00,29.7,26.2,30.13,NNE,26,0.0,0.0,87,0.00,,,0.00,meteohub,2013-03-30 12:51:00,
2013-03-30 05:56:00,29.7,26.1,30.13,NNE,26,0.0,0.0,86,0.00,,,0.00,meteohub,2013-03-30 12:56:00,
2013-03-30 06:02:00,29.5,25.9,30.13,NNE,26,0.0,0.0,86,0.00,,,0.00,meteohub,2013-03-30 13:02:00,
2013-03-30 06:07:00,29.3,25.7,30.13,NNE,26,0.0,0.0,86,0.00,,,0.00,meteohub,2013-03-30 13:07:00,
2013-03-30 06:12:00,29.3,25.7,30.13,NNE,26,0.0,0.0,86,0.00,,,0.00,meteohub,2013-03-30 13:12:00,
2013-03-30 06:17:00,29.3,25.7,30.13,NNE,26,0.0,0.0,86,0.00,,,0.00,meteohub,2013-03-30 13:17:00,
2013-03-30 06:22:00,29.3,25.7,30.13,NNE,26,0.0,0.0,86,0.00,,,0.00,meteohub,2013-03-30 13:22:00,
2013-03-30 06:27:00,29.3,25.7,30.13,NNE,26,0.0,0.0,86,0.00,,,0.00,meteohub,2013-03-30 13:27:00,
2013-03-30 06:32:00,29.3,25.7,30.13,NNE,26,1.0,0.0,86,0.00,,,0.00,meteohub,2013-03-30 13:32:00,
2013-03-30 06:37:00,29.5,26.1,30.13,NNE,26,0.0,1.0,87,0.00,,,0.00,meteohub,2013-03-30 13:37:00,
2013-03-30 06:42:00,29.5,26.1,30.13,SSE,163,0.0,1.0,87,0.00,,,0.00,meteohub,2013-03-30 13:42:00,
2013-03-30 06:48:00,29.5,26.1,30.13,SSE,167,0.0,2.0,87,0.00,,,0.00,meteohub,2013-03-30 13:48:00,
2013-03-30 06:53:00,29.5,26.4,30.14,SSW,193,0.0,2.0,88,0.00,,,0.00,meteohub,2013-03-30 13:53:00,
2013-03-30 06:58:00,29.7,26.2,30.14,SSW,193,0.0,3.0,87,0.00,,,0.00,meteohub,2013-03-30 13:58:00,
2013-03-30 07:03:00,29.7,26.2,30.14,South,182,0.0,3.0,87,0.00,,,0.00,meteohub,2013-03-30 14:03:00,
2013-03-30 07:08:00,29.7,26.2,30.14,South,182,0.0,3.0,87,0.00,,,0.00,meteohub,2013-03-30 14:08:00,
2013-03-30 07:14:00,29.8,26.8,30.14,South,190,0.0,3.0,88,0.00,,,0.00,meteohub,2013-03-30 14:14:00,
2013-03-30 07:19:00,30.0,27.1,30.14,SSE,157,0.0,2.0,89,0.00,,,0.00,meteohub,2013-03-30 14:19:00,
2013-03-30 07:24:00,30.0,27.1,30.14,ESE,119,0.0,2.0,89,0.00,,,0.00,meteohub,2013-03-30 14:24:00,
2013-03-30 07:29:00,30.4,27.5,30.14,SE,144,0.0,2.0,89,0.00,,,0.00,meteohub,2013-03-30 14:29:00,
2013-03-30 07:35:00,30.6,27.7,30.14,South,184,3.0,3.0,89,0.00,,,0.00,meteohub,2013-03-30 14:35:00,
2013-03-30 07:40:00,30.7,27.9,30.14,South,186,0.0,3.0,89,0.00,,,0.00,meteohub,2013-03-30 14:40:00,
2013-03-30 07:45:00,30.9,28.0,30.14,WSW,246,0.0,3.0,89,0.00,,,0.00,meteohub,2013-03-30 14:45:00,
2013-03-30 07:50:00,31.1,28.2,30.14,WSW,248,0.0,2.0,89,0.00,,,0.00,meteohub,2013-03-30 14:50:00,
2013-03-30 07:55:00,31.3,28.2,30.14,SW,234,0.0,2.0,88,0.00,,,0.00,meteohub,2013-03-30 14:55:00,
2013-03-30 08:00:00,31.3,28.2,30.14,SSW,197,0.0,3.0,88,0.00,,,0.00,meteohub,2013-03-30 15:00:00,
2013-03-30 08:06:00,31.5,28.4,30.14,SSW,197,0.0,3.0,88,0.00,,,0.00,meteohub,2013-03-30 15:06:00,
2013-03-30 08:11:00,31.5,28.4,30.14,SSW,196,0.0,3.0,88,0.00,,,0.00,meteohub,2013-03-30 15:11:00,
2013-03-30 08:16:00,31.8,28.9,30.14,SSW,196,0.0,2.0,89,0.00,,,0.00,meteohub,2013-03-30 15:16:00,
2013-03-30 08:21:00,32.4,29.5,30.14,SSW,198,0.0,2.0,89,0.00,,,0.00,meteohub,2013-03-30 15:21:00,
2013-03-30 08:27:00,33.1,30.2,30.14,South,187,0.0,4.0,89,0.00,,,0.00,meteohub,2013-03-30 15:27:00,
2013-03-30 08:32:00,34.2,31.3,30.14,South,187,0.0,4.0,89,0.00,,,0.00,meteohub,2013-03-30 15:32:00,
2013-03-30 08:37:00,35.2,31.8,30.14,South,187,0.0,4.0,87,0.00,,,0.00,meteohub,2013-03-30 15:37:00,
2013-03-30 08:42:00,36.1,32.4,30.14,South,189,0.0,1.0,86,0.00,,,0.00,meteohub,2013-03-30 15:42:00,
2013-03-30 08:47:00,36.9,32.5,30.14,SSW,193,0.0,1.0,84,0.00,,,0.00,meteohub,2013-03-30 15:47:00,
2013-03-30 08:52:00,37.9,33.3,30.14,SSW,195,0.0,2.0,83,0.00,,,0.00,meteohub,2013-03-30 15:52:00,
2013-03-30 08:57:00,38.8,33.4,30.14,SW,215,0.0,2.0,81,0.00,,,0.00,meteohub,2013-03-30 15:57:00,
2013-03-30 09:02:00,39.7,34.2,30.14,SW,215,0.0,4.0,80,0.00,,,0.00,meteohub,2013-03-30 16:02:00,
2013-03-30 09:08:00,41.0,34.3,30.14,WSW,257,0.0,4.0,77,0.00,,,0.00,meteohub,2013-03-30 16:08:00,
2013-03-30 09:13:00,41.5,34.5,30.14,SSW,206,0.0,4.0,76,0.00,,,0.00,meteohub,2013-03-30 16:13:00,
2013-03-30 09:18:00,42.3,34.9,30.14,South,181,0.0,4.0,75,0.00,,,0.00,meteohub,2013-03-30 16:18:00,
2013-03-30 09:23:00,43.3,35.6,30.13,SW,225,0.0,4.0,74,0.00,,,0.00,meteohub,2013-03-30 16:23:00,
2013-03-30 09:28:00,44.2,36.1,30.13,South,189,3.0,4.0,73,0.00,,,0.00,meteohub,2013-03-30 16:28:00,
2013-03-30 09:33:00,45.1,36.3,30.13,SSE,157,0.0,5.0,71,0.00,,,0.00,meteohub,2013-03-30 16:33:00,
2013-03-30 09:38:00,45.9,36.7,30.13,SSW,204,0.0,5.0,70,0.00,,,0.00,meteohub,2013-03-30 16:38:00,
2013-03-30 09:43:00,46.8,37.2,30.13,SSW,203,0.0,6.0,69,0.00,,,0.00,meteohub,2013-03-30 16:43:00,
2013-03-30 09:49:00,46.9,37.2,30.13,SSE,156,0.0,6.0,69,0.00,,,0.00,meteohub,2013-03-30 16:49:00,
2013-03-30 09:54:00,47.5,38.1,30.13,WSW,238,0.0,6.0,70,0.00,,,0.00,meteohub,2013-03-30 16:54:00,
2013-03-30 09:59:00,48.4,38.7,30.13,West,261,1.0,4.0,69,0.00,,,0.00,meteohub,2013-03-30 16:59:00,
2013-03-30 10:04:00,49.5,39.0,30.13,SW,233,0.0,4.0,67,0.00,,,0.00,meteohub,2013-03-30 17:04:00,
2013-03-30 10:10:00,51.1,39.7,30.13,SSW,194,4.0,4.0,65,0.00,,,0.00,meteohub,2013-03-30 17:10:00,
2013-03-30 10:15:00,52.0,40.6,30.13,SW,223,1.0,4.0,65,0.00,,,0.00,meteohub,2013-03-30 17:15:00,
2013-03-30 10:20:00,52.9,40.6,30.12,SW,220,0.0,5.0,63,0.00,,,0.00,meteohub,2013-03-30 17:20:00,
2013-03-30 10:25:00,52.9,40.3,30.12,SSW,194,0.0,5.0,62,0.00,,,0.00,meteohub,2013-03-30 17:25:00,
2013-03-30 10:31:00,53.4,40.6,30.12,SSW,192,3.0,5.0,62,0.00,,,0.00,meteohub,2013-03-30 17:31:00,
2013-03-30 10:36:00,54.1,40.6,30.12,SSE,164,1.0,5.0,60,0.00,,,0.00,meteohub,2013-03-30 17:36:00,
2013-03-30 10:41:00,54.7,41.0,30.12,South,184,0.0,4.0,60,0.00,,,0.00,meteohub,2013-03-30 17:41:00,
2013-03-30 10:47:00,55.2,40.6,30.12,SSE,148,0.0,4.0,58,0.00,,,0.00,meteohub,2013-03-30 17:47:00,
2013-03-30 10:52:00,55.4,41.4,30.12,SSW,209,0.0,4.0,59,0.00,,,0.00,meteohub,2013-03-30 17:52:00,
2013-03-30 10:57:00,56.1,41.5,30.12,WSW,237,2.0,3.0,58,0.00,,,0.00,meteohub,2013-03-30 17:57:00,
2013-03-30 11:02:00,56.7,41.2,30.12,SW,214,0.0,5.0,56,0.00,,,0.00,meteohub,2013-03-30 18:02:00,
2013-03-30 11:07:00,57.7,41.2,30.12,SSW,212,0.0,5.0,54,0.00,,,0.00,meteohub,2013-03-30 18:07:00,
2013-03-30 11:13:00,58.6,42.1,30.12,South,182,0.0,5.0,54,0.00,,,0.00,meteohub,2013-03-30 18:13:00,
2013-03-30 11:18:00,59.0,40.8,30.12,ENE,65,0.0,2.0,51,0.00,,,0.00,meteohub,2013-03-30 18:18:00,
2013-03-30 11:23:00,59.0,40.8,30.12,ENE,62,0.0,2.0,51,0.00,,,0.00,meteohub,2013-03-30 18:23:00,
2013-03-30 11:28:00,59.7,41.5,30.12,ENE,62,0.0,2.0,51,0.00,,,0.00,meteohub,2013-03-30 18:28:00,
2013-03-30 11:33:00,60.3,41.0,30.12,ENE,57,1.0,2.0,49,0.00,,,0.00,meteohub,2013-03-30 18:33:00,
2013-03-30 11:38:00,60.4,41.7,30.11,ENE,57,0.0,2.0,50,0.00,,,0.00,meteohub,2013-03-30 18:38:00,
2013-03-30 11:43:00,60.6,41.4,30.11,NNE,22,0.0,4.0,49,0.00,,,0.00,meteohub,2013-03-30 18:43:00,
2013-03-30 11:49:00,61.2,41.9,30.11,NNE,22,0.0,4.0,49,0.00,,,0.00,meteohub,2013-03-30 18:49:00,
2013-03-30 11:54:00,61.7,41.9,30.10,North,11,4.0,4.0,48,0.00,,,0.00,meteohub,2013-03-30 18:54:00,
2013-03-30 11:59:00,60.3,41.0,30.10,West,273,2.0,4.0,49,0.00,,,0.00,meteohub,2013-03-30 18:59:00,
2013-03-30 12:04:00,61.0,42.3,30.10,West,274,0.0,4.0,50,0.00,,,0.00,meteohub,2013-03-30 19:04:00,
2013-03-30 12:10:00,62.2,43.3,30.10,NW,319,2.0,4.0,50,0.00,,,0.00,meteohub,2013-03-30 19:10:00,
2013-03-30 12:15:00,63.0,41.4,30.10,NE,44,1.0,4.0,45,0.00,,,0.00,meteohub,2013-03-30 19:15:00,
2013-03-30 12:20:00,63.9,42.6,30.09,ENE,60,0.0,4.0,46,0.00,,,0.00,meteohub,2013-03-30 19:20:00,
2013-03-30 12:26:00,63.9,41.5,30.09,North,355,1.0,6.0,44,0.00,,,0.00,meteohub,2013-03-30 19:26:00,
2013-03-30 12:31:00,62.8,41.2,30.09,North,355,0.0,6.0,45,0.00,,,0.00,meteohub,2013-03-30 19:31:00,
2013-03-30 12:36:00,62.4,40.8,30.09,NNE,14,2.0,6.0,45,0.00,,,0.00,meteohub,2013-03-30 19:36:00,
2013-03-30 12:41:00,62.6,41.0,30.09,North,355,0.0,6.0,45,0.00,,,0.00,meteohub,2013-03-30 19:41:00,
2013-03-30 12:46:00,63.1,41.5,30.09,NE,36,1.0,5.0,45,0.00,,,0.00,meteohub,2013-03-30 19:46:00,
2013-03-30 12:51:00,64.2,41.9,30.08,SSW,203,0.0,5.0,44,0.00,,,0.00,meteohub,2013-03-30 19:51:00,
2013-03-30 12:57:00,65.7,42.6,30.08,South,171,0.0,5.0,43,0.00,,,0.00,meteohub,2013-03-30 19:57:00,
2013-03-30 13:02:00,66.7,42.3,30.08,NW,321,0.0,4.0,41,0.00,,,0.00,meteohub,2013-03-30 20:02:00,
2013-03-30 13:07:00,66.9,41.9,30.08,NE,36,0.0,4.0,40,0.00,,,0.00,meteohub,2013-03-30 20:07:00,
2013-03-30 13:12:00,66.6,42.8,30.08,NE,34,1.0,5.0,42,0.00,,,0.00,meteohub,2013-03-30 20:12:00,
2013-03-30 13:17:00,66.9,44.2,30.08,NNE,13,2.0,6.0,44,0.00,,,0.00,meteohub,2013-03-30 20:17:00,
2013-03-30 13:22:00,65.8,42.1,30.08,NE,47,3.0,6.0,42,0.00,,,0.00,meteohub,2013-03-30 20:22:00,
2013-03-30 13:27:00,66.0,42.3,30.08,NNE,19,0.0,6.0,42,0.00,,,0.00,meteohub,2013-03-30 20:27:00,
2013-03-30 13:32:00,66.9,43.2,30.08,NNE,26,0.0,4.0,42,0.00,,,0.00,meteohub,2013-03-30 20:32:00,
2013-03-30 13:37:00,67.8,42.6,30.07,SSE,153,0.0,4.0,40,0.00,,,0.00,meteohub,2013-03-30 20:37:00,
2013-03-30 13:42:00,68.7,43.3,30.07,SSE,159,0.0,3.0,40,0.00,,,0.00,meteohub,2013-03-30 20:42:00,
2013-03-30 13:47:00,68.7,42.8,30.07,SSE,160,0.0,3.0,39,0.00,,,0.00,meteohub,2013-03-30 20:47:00,
2013-03-30 13:52:00,68.7,42.1,30.06,West,274,1.0,3.0,38,0.00,,,0.00,meteohub,2013-03-30 20:52:00,
2013-03-30 13:58:00,68.7,42.8,30.06,SW,218,1.0,5.0,39,0.00,,,0.00,meteohub,2013-03-30 20:58:00,
2013-03-30 14:03:00,69.1,43.2,30.06,WNW,294,0.0,5.0,39,0.00,,,0.00,meteohub,2013-03-30 21:03:00,
2013-03-30 14:08:00,68.5,42.6,30.06,NNE,15,4.0,4.0,39,0.00,,,0.00,meteohub,2013-03-30 21:08:00,
2013-03-30 14:14:00,67.8,42.6,30.06,NE,40,4.0,6.0,40,0.00,,,0.00,meteohub,2013-03-30 21:14:00,
2013-03-30 14:19:00,67.6,41.7,30.05,ENE,76,0.0,6.0,39,0.00,,,0.00,meteohub,2013-03-30 21:19:00,
2013-03-30 14:24:00,67.1,42.6,30.05,North,0,0.0,6.0,41,0.00,,,0.00,meteohub,2013-03-30 21:24:00,
2013-03-30 14:29:00,66.9,41.9,30.05,NNE,21,2.0,5.0,40,0.00,,,0.00,meteohub,2013-03-30 21:29:00,
2013-03-30 14:35:00,67.1,42.6,30.04,ESE,116,1.0,3.0,41,0.00,,,0.00,meteohub,2013-03-30 21:35:00,
2013-03-30 14:40:00,67.1,41.4,30.04,NNE,17,0.0,10.0,39,0.00,,,0.00,meteohub,2013-03-30 21:40:00,
2013-03-30 14:45:00,67.5,41.7,30.04,North,10,1.0,10.0,39,0.00,,,0.00,meteohub,2013-03-30 21:45:00,
2013-03-30 14:50:00,67.6,43.2,30.04,North,11,1.0,10.0,41,0.00,,,0.00,meteohub,2013-03-30 21:50:00,
2013-03-30 14:56:00,67.8,42.6,30.04,NNE,30,1.0,9.0,40,0.00,,,0.00,meteohub,2013-03-30 21:56:00,
2013-03-30 15:01:00,67.5,41.7,30.04,NNE,15,0.0,9.0,39,0.00,,,0.00,meteohub,2013-03-30 22:01:00,
2013-03-30 15:06:00,67.5,42.3,30.04,NE,52,1.0,9.0,40,0.00,,,0.00,meteohub,2013-03-30 22:06:00,
2013-03-30 15:12:00,67.6,41.2,30.04,North,355,3.0,9.0,38,0.00,,,0.00,meteohub,2013-03-30 22:12:00,
2013-03-30 15:17:00,66.7,41.0,30.04,North,5,2.0,8.0,39,0.00,,,0.00,meteohub,2013-03-30 22:17:00,
2013-03-30 15:22:00,66.6,41.5,30.03,ENE,73,2.0,9.0,40,0.00,,,0.00,meteohub,2013-03-30 22:22:00,
2013-03-30 15:27:00,66.9,41.2,30.03,ENE,73,1.0,9.0,39,0.00,,,0.00,meteohub,2013-03-30 22:27:00,
2013-03-30 15:32:00,67.3,40.8,30.03,East,88,0.0,9.0,38,0.00,,,0.00,meteohub,2013-03-30 22:32:00,
2013-03-30 15:37:00,68.2,42.3,30.02,NW,313,1.0,4.0,39,0.00,,,0.00,meteohub,2013-03-30 22:37:00,
2013-03-30 15:42:00,68.2,41.5,30.02,NNW,328,0.0,4.0,38,0.00,,,0.00,meteohub,2013-03-30 22:42:00,
2013-03-30 15:48:00,68.4,42.4,30.02,NW,315,3.0,4.0,39,0.00,,,0.00,meteohub,2013-03-30 22:48:00,
2013-03-30 15:53:00,68.5,41.2,30.01,NNE,19,0.0,6.0,37,0.00,,,0.00,meteohub,2013-03-30 22:53:00,
2013-03-30 15:58:00,68.2,41.5,30.01,NNW,342,2.0,8.0,38,0.00,,,0.00,meteohub,2013-03-30 22:58:00,
2013-03-30 16:03:00,68.0,40.8,30.01,ESE,121,0.0,8.0,37,0.00,,,0.00,meteohub,2013-03-30 23:03:00,
2013-03-30 16:09:00,68.4,41.7,30.01,NW,306,6.0,8.0,38,0.00,,,0.00,meteohub,2013-03-30 23:09:00,
2013-03-30 16:14:00,68.5,40.5,30.01,NE,51,0.0,8.0,36,0.00,,,0.00,meteohub,2013-03-30 23:14:00,
2013-03-30 16:19:00,68.5,41.2,30.01,NE,37,5.0,8.0,37,0.00,,,0.00,meteohub,2013-03-30 23:19:00,
2013-03-30 16:24:00,67.6,40.5,30.01,North,9,0.0,8.0,37,0.00,,,0.00,meteohub,2013-03-30 23:24:00,
2013-03-30 16:27:00,67.5,39.6,30.01,ENE,76,4.0,10.0,36,0.00,,,0.00,meteohub,2013-03-30 23:27:00,
2013-03-30 16:32:00,67.1,39.9,30.01,NNW,335,0.0,10.0,37,0.00,,,0.00,meteohub,2013-03-30 23:32:00,
2013-03-30 16:37:00,66.9,40.5,30.00,NE,49,0.0,10.0,38,0.00,,,0.00,meteohub,2013-03-30 23:37:00,
2013-03-30 16:42:00,66.9,39.0,30.00,NE,34,0.0,8.0,36,0.00,,,0.00,meteohub,2013-03-30 23:42:00,
2013-03-30 16:48:00,66.9,39.0,30.00,NNE,17,5.0,5.0,36,0.00,,,0.00,meteohub,2013-03-30 23:48:00,
2013-03-30 16:53:00,66.7,38.3,30.00,WNW,292,2.0,7.0,35,0.00,,,0.00,meteohub,2013-03-30 23:53:00,
2013-03-30 16:58:00,66.7,39.0,30.00,NNE,23,0.0,7.0,36,0.00,,,0.00,meteohub,2013-03-30 23:58:00,
2013-03-30 17:03:00,66.6,39.6,30.00,NNE,22,2.0,8.0,37,0.00,,,0.00,meteohub,2013-03-31 00:03:00,
2013-03-30 17:09:00,66.6,40.1,29.99,East,81,0.0,8.0,38,0.00,,,0.00,meteohub,2013-03-31 00:09:00,
2013-03-30 17:14:00,66.6,40.1,29.99,North,0,7.0,9.0,38,0.00,,,0.00,meteohub,2013-03-31 00:14:00,
2013-03-30 17:19:00,65.8,40.1,29.99,NW,315,2.0,9.0,39,0.00,,,0.00,meteohub,2013-03-31 00:19:00,
2013-03-30 17:24:00,65.5,39.9,29.99,North,0,8.0,12.0,39,0.00,,,0.00,meteohub,2013-03-31 00:24:00,
2013-03-30 17:29:00,65.1,39.6,29.99,North,5,0.0,12.0,39,0.00,,,0.00,meteohub,2013-03-31 00:29:00,
2013-03-30 17:34:00,65.1,40.3,29.99,NNE,17,4.0,12.0,40,0.00,,,0.00,meteohub,2013-03-31 00:34:00,
2013-03-30 17:39:00,64.8,39.9,29.99,North,5,2.0,11.0,40,0.00,,,0.00,meteohub,2013-03-31 00:39:00,
2013-03-30 17:45:00,64.6,40.3,29.99,NNE,25,2.0,11.0,41,0.00,,,0.00,meteohub,2013-03-31 00:45:00,
2013-03-30 17:50:00,64.2,40.1,29.99,NE,44,6.0,11.0,41,0.00,,,0.00,meteohub,2013-03-31 00:50:00,
2013-03-30 17:55:00,64.0,39.9,29.99,North,0,0.0,11.0,41,0.00,,,0.00,meteohub,2013-03-31 00:55:00,
2013-03-30 18:00:00,64.0,40.5,29.99,NE,36,1.0,11.0,42,0.00,,,0.00,meteohub,2013-03-31 01:00:00,
2013-03-30 18:05:00,63.9,41.0,29.98,NE,51,1.0,11.0,43,0.00,,,0.00,meteohub,2013-03-31 01:05:00,
2013-03-30 18:11:00,63.5,40.6,29.98,NNW,342,0.0,11.0,43,0.00,,,0.00,meteohub,2013-03-31 01:11:00,
2013-03-30 18:16:00,63.1,40.8,29.98,North,350,7.0,11.0,44,0.00,,,0.00,meteohub,2013-03-31 01:16:00,
2013-03-30 18:21:00,62.8,41.2,29.98,North,9,1.0,12.0,45,0.00,,,0.00,meteohub,2013-03-31 01:21:00,
2013-03-30 18:27:00,62.4,41.4,29.98,ENE,64,2.0,12.0,46,0.00,,,0.00,meteohub,2013-03-31 01:27:00,
2013-03-30 18:32:00,62.1,41.0,29.98,North,350,0.0,12.0,46,0.00,,,0.00,meteohub,2013-03-31 01:32:00,
2013-03-30 18:37:00,61.5,41.2,29.98,NNE,19,1.0,9.0,47,0.00,,,0.00,meteohub,2013-03-31 01:37:00,
2013-03-30 18:42:00,61.3,41.5,29.98,NE,34,3.0,10.0,48,0.00,,,0.00,meteohub,2013-03-31 01:42:00,
2013-03-30 18:47:00,61.0,41.2,29.98,North,9,5.0,10.0,48,0.00,,,0.00,meteohub,2013-03-31 01:47:00,
2013-03-30 18:52:00,60.6,41.4,29.98,NE,36,4.0,10.0,49,0.00,,,0.00,meteohub,2013-03-31 01:52:00,
2013-03-30 18:58:00,60.3,41.0,29.98,NE,49,2.0,13.0,49,0.00,,,0.00,meteohub,2013-03-31 01:58:00,
2013-03-30 19:03:00,60.1,41.4,29.98,NNE,14,0.0,13.0,50,0.00,,,0.00,meteohub,2013-03-31 02:03:00,
2013-03-30 19:08:00,59.5,41.4,29.98,NNW,347,1.0,13.0,51,0.00,,,0.00,meteohub,2013-03-31 02:08:00,
2013-03-30 19:13:00,59.0,41.4,29.98,North,5,1.0,11.0,52,0.00,,,0.00,meteohub,2013-03-31 02:13:00,
2013-03-30 19:18:00,59.0,41.4,29.98,North,9,3.0,7.0,52,0.00,,,0.00,meteohub,2013-03-31 02:18:00,
2013-03-30 19:23:00,58.6,41.0,29.98,NE,39,3.0,11.0,52,0.00,,,0.00,meteohub,2013-03-31 02:23:00,
2013-03-30 19:28:00,58.1,41.0,29.98,NE,44,5.0,11.0,53,0.00,,,0.00,meteohub,2013-03-31 02:28:00,
2013-03-30 19:34:00,57.7,41.2,29.98,North,5,0.0,11.0,54,0.00,,,0.00,meteohub,2013-03-31 02:34:00,
2013-03-30 19:39:00,57.4,41.4,29.97,NNE,18,3.0,7.0,55,0.00,,,0.00,meteohub,2013-03-31 02:39:00,
2013-03-30 19:44:00,57.0,41.0,29.97,NNE,28,1.0,7.0,55,0.00,,,0.00,meteohub,2013-03-31 02:44:00,
2013-03-30 19:49:00,56.8,41.4,29.97,North,5,0.0,7.0,56,0.00,,,0.00,meteohub,2013-03-31 02:49:00,
2013-03-30 19:55:00,56.7,41.2,29.97,NNE,22,4.0,9.0,56,0.00,,,0.00,meteohub,2013-03-31 02:55:00,
2013-03-30 20:00:00,56.3,40.8,29.97,NNE,19,4.0,9.0,56,0.00,,,0.00,meteohub,2013-03-31 03:00:00,
2013-03-30 20:05:00,55.9,41.0,29.98,NNE,30,1.0,9.0,57,0.00,,,0.00,meteohub,2013-03-31 03:05:00,
2013-03-30 20:10:00,55.8,40.8,29.98,NNE,24,1.0,7.0,57,0.00,,,0.00,meteohub,2013-03-31 03:10:00,
2013-03-30 20:15:00,55.2,40.6,29.98,NNE,25,3.0,8.0,58,0.00,,,0.00,meteohub,2013-03-31 03:15:00,
2013-03-30 20:21:00,55.0,40.5,29.99,NNE,15,1.0,8.0,58,0.00,,,0.00,meteohub,2013-03-31 03:21:00,
2013-03-30 20:26:00,54.9,40.8,29.99,North,5,1.0,8.0,59,0.00,,,0.00,meteohub,2013-03-31 03:26:00,
2013-03-30 20:32:00,54.5,40.8,29.99,NNE,24,1.0,7.0,60,0.00,,,0.00,meteohub,2013-03-31 03:32:00,
2013-03-30 20:37:00,54.1,40.6,29.99,North,5,2.0,5.0,60,0.00,,,0.00,meteohub,2013-03-31 03:37:00,
2013-03-30 20:42:00,54.0,40.5,29.99,NNE,13,2.0,6.0,60,0.00,,,0.00,meteohub,2013-03-31 03:42:00,
2013-03-30 20:47:00,53.8,40.6,29.99,North,9,0.0,6.0,61,0.00,,,0.00,meteohub,2013-03-31 03:47:00,
2013-03-30 20:52:00,53.4,40.3,29.99,NNE,13,1.0,6.0,61,0.00,,,0.00,meteohub,2013-03-31 03:52:00,
2013-03-30 20:57:00,53.2,40.1,29.99,NNE,24,1.0,6.0,61,0.00,,,0.00,meteohub,2013-03-31 03:57:00,
2013-03-30 21:00:00,53.2,40.6,29.99,NNE,24,0.0,6.0,62,0.00,,,0.00,meteohub,2013-03-31 04:00:00,
2013-03-30 21:02:00,53.2,40.6,29.99,NNE,27,3.0,6.0,62,0.00,,,0.00,meteohub,2013-03-31 04:02:00,
2013-03-30 21:07:00,53.1,40.5,29.99,NNE,26,1.0,5.0,62,0.00,,,0.00,meteohub,2013-03-31 04:07:00,
2013-03-30 21:12:00,52.7,40.1,29.99,North,5,4.0,5.0,62,0.00,,,0.00,meteohub,2013-03-31 04:12:00,
2013-03-30 21:18:00,52.5,40.3,29.99,NE,51,2.0,7.0,63,0.00,,,0.00,meteohub,2013-03-31 04:18:00,
2013-03-30 21:23:00,52.3,40.1,29.99,North,9,0.0,7.0,63,0.00,,,0.00,meteohub,2013-03-31 04:23:00,
2013-03-30 21:28:00,52.2,39.9,29.99,NNE,12,1.0,5.0,63,0.00,,,0.00,meteohub,2013-03-31 04:28:00,
2013-03-30 21:33:00,52.0,39.7,29.99,NNE,26,2.0,5.0,63,0.00,,,0.00,meteohub,2013-03-31 04:33:00,
2013-03-30 21:39:00,51.8,39.6,29.99,NNE,29,1.0,5.0,63,0.00,,,0.00,meteohub,2013-03-31 04:39:00,
2013-03-30 21:44:00,51.4,39.7,29.99,NNE,29,0.0,5.0,64,0.00,,,0.00,meteohub,2013-03-31 04:44:00,
2013-03-30 21:49:00,51.3,39.6,29.99,NNE,28,1.0,5.0,64,0.00,,,0.00,meteohub,2013-03-31 04:49:00,
2013-03-30 21:54:00,51.1,39.4,29.99,NNE,22,1.0,5.0,64,0.00,,,0.00,meteohub,2013-03-31 04:54:00,
2013-03-30 22:00:00,51.1,39.4,29.99,NE,34,0.0,5.0,64,0.00,,,0.00,meteohub,2013-03-31 05:00:00,
2013-03-30 22:05:00,51.1,39.4,29.99,NNE,19,2.0,6.0,64,0.00,,,0.00,meteohub,2013-03-31 05:05:00,
2013-03-30 22:11:00,51.1,39.7,29.99,NNE,13,0.0,6.0,65,0.00,,,0.00,meteohub,2013-03-31 05:11:00,
2013-03-30 22:16:00,51.1,39.7,29.99,NNE,25,0.0,7.0,65,0.00,,,0.00,meteohub,2013-03-31 05:16:00,
2013-03-30 22:21:00,50.9,39.6,29.99,NNE,30,0.0,7.0,65,0.00,,,0.00,meteohub,2013-03-31 05:21:00,
2013-03-30 22:26:00,50.7,39.4,29.99,NNE,17,3.0,7.0,65,0.00,,,0.00,meteohub,2013-03-31 05:26:00,
2013-03-30 22:32:00,50.5,39.6,29.99,NNE,19,0.0,6.0,66,0.00,,,0.00,meteohub,2013-03-31 05:32:00,
2013-03-30 22:37:00,50.2,39.2,29.99,NNE,26,0.0,6.0,66,0.00,,,0.00,meteohub,2013-03-31 05:37:00,
2013-03-30 22:42:00,49.6,39.2,29.99,NNE,26,1.0,4.0,67,0.00,,,0.00,meteohub,2013-03-31 05:42:00,
2013-03-30 22:48:00,49.3,39.2,29.99,NE,46,0.0,2.0,68,0.00,,,0.00,meteohub,2013-03-31 05:48:00,
2013-03-30 22:53:00,49.1,39.4,29.98,NNE,33,0.0,3.0,69,0.00,,,0.00,meteohub,2013-03-31 05:53:00,
2013-03-30 22:58:00,48.9,39.2,29.98,NNE,30,0.0,4.0,69,0.00,,,0.00,meteohub,2013-03-31 05:58:00,
2013-03-30 23:03:00,48.9,39.2,29.98,NNE,32,1.0,6.0,69,0.00,,,0.00,meteohub,2013-03-31 06:03:00,
2013-03-30 23:08:00,48.7,39.0,29.97,NE,36,0.0,6.0,69,0.00,,,0.00,meteohub,2013-03-31 06:08:00,
2013-03-30 23:13:00,48.6,39.2,29.97,NE,44,0.0,6.0,70,0.00,,,0.00,meteohub,2013-03-31 06:13:00,
2013-03-30 23:19:00,48.4,39.0,29.97,NNE,22,1.0,3.0,70,0.00,,,0.00,meteohub,2013-03-31 06:19:00,
2013-03-30 23:24:00,48.4,39.0,29.97,NNE,22,2.0,4.0,70,0.00,,,0.00,meteohub,2013-03-31 06:24:00,
2013-03-30 23:29:00,48.2,39.2,29.97,NNE,23,1.0,5.0,71,0.00,,,0.00,meteohub,2013-03-31 06:29:00,
2013-03-30 23:34:00,48.2,39.2,29.97,NNE,31,0.0,5.0,71,0.00,,,0.00,meteohub,2013-03-31 06:34:00,
2013-03-30 23:39:00,48.0,39.0,29.97,NNE,22,2.0,5.0,71,0.00,,,0.00,meteohub,2013-03-31 06:39:00,
2013-03-30 23:45:00,48.0,39.0,29.97,NNE,19,0.0,4.0,71,0.00,,,0.00,meteohub,2013-03-31 06:45:00,
2013-03-30 23:50:00,47.8,39.2,29.97,North,9,0.0,6.0,72,0.00,,,0.00,meteohub,2013-03-31 06:50:00,
2013-03-30 23:55:00,47.8,38.8,29.97,ENE,67,0.0,5.0,71,0.00,,,0.00,meteohub,2013-03-31 06:55:00,